| time (UTC) | temp F | wind direction | speed knots | gust knots | rain 1hr in | rain 24hr in | rain mn in | humidity % | barometer mb |
| 20260902162005 | 74 | 50 | 4.3 | 7.0 | 0.00 | 0.00 | 0.00 | 35 | 1020.4 |
| 20260902161502 | 74 | 130 | 2.6 | 6.1 | 0.00 | 0.00 | 0.00 | 37 | 1005.2 |
| 20260902160503 | 74 | 43 | 2.6 | 8.7 | 0.00 | 0.00 | 0.00 | 36 | 1020.5 |
| 20260902160008 | 74 | 38 | 5.2 | 8.7 | 0.00 | 0.00 | 0.00 | 36 | 1020.5 |
| 20260902160004 | 74 | 38 | 4.3 | 8.7 | 0.00 | 0.00 | 0.00 | 36 | 1005.4 |
| 20260902155505 | 74 | 28 | 1.7 | 4.3 | 0.00 | 0.00 | 0.00 | 34 | 1020.5 |
| 20260902155005 | 74 | 327 | 0.9 | 3.5 | 0.00 | 0.00 | 0.00 | 35 | 1020.6 |
| 20260902154505 | 74 | 314 | 0.9 | 3.5 | 0.00 | 0.00 | 0.00 | 35 | 1005.6 |
| 20260902154005 | 74 | 34 | 1.7 | 2.6 | 0.00 | 0.00 | 0.00 | 37 | 1020.7 |
| 20260902153503 | 73 | 34 | 0.9 | 4.3 | 0.00 | 0.00 | 0.00 | 35 | 1020.8 |
| 20260902153005 | 73 | 34 | 1.7 | 4.3 | 0.00 | 0.00 | 0.00 | 36 | 1020.7 |
| 20260902153002 | 73 | 34 | 0.9 | 4.3 | 0.00 | 0.00 | 0.00 | 36 | 1005.7 |
| 20260902152505 | 73 | 17 | 1.7 | 4.3 | 0.00 | 0.00 | 0.00 | 35 | 1020.7 |
| 20260902152005 | 73 | 17 | 1.7 | 5.2 | 0.00 | 0.00 | 0.00 | 36 | 1020.7 |
| 20260902151504 | 73 | 17 | 2.6 | 5.2 | 0.00 | 0.00 | 0.00 | 37 | 1005.6 |
| 20260902151005 | 73 | 23 | 2.6 | 3.5 | 0.00 | 0.00 | 0.00 | 37 | 1020.7 |
| 20260902150505 | 73 | 23 | 1.7 | 2.6 | 0.00 | 0.00 | 0.00 | 39 | 1020.7 |
| 20260902150007 | 72 | 23 | 1.7 | 3.5 | 0.00 | 0.00 | 0.00 | 38 | 1020.6 |
| 20260902150002 | 72 | 23 | 0.9 | 3.5 | 0.00 | 0.00 | 0.00 | 38 | 1005.7 |
| 20260902145505 | 72 | 23 | 1.7 | 3.5 | 0.00 | 0.00 | 0.00 | 38 | 1020.5 |
| 20260902144506 | 71 | 23 | 0.9 | 2.6 | 0.00 | 0.00 | 0.00 | 44 | 1005.5 |
| 20260902144005 | 70 | 292 | 0.9 | 2.6 | 0.00 | 0.00 | 0.00 | 42 | 1020.5 |
| 20260902143504 | 69 | 257 | 0.9 | 1.7 | 0.00 | 0.00 | 0.00 | 46 | 1020.5 |
| 20260902143008 | 68 | 217 | 0.9 | 1.7 | 0.00 | 0.00 | 0.00 | 46 | 1020.5 |
| 20260902143005 | 68 | 217 | 0.9 | 1.7 | 0.00 | 0.00 | 0.00 | 46 | 1005.5 |
| 20260902142505 | 67 | 217 | 0.9 | 1.7 | 0.00 | 0.00 | 0.00 | 49 | 1020.5 |
| 20260902142005 | 67 | 217 | 0.9 | 1.7 | 0.00 | 0.00 | 0.00 | 51 | 1020.4 |
| 20260902141505 | 66 | 217 | 1.7 | 2.6 | 0.00 | 0.00 | 0.00 | 52 | 1020.4 |
| 20260902141503 | 66 | 217 | 0.9 | 2.6 | 0.00 | 0.00 | 0.00 | 52 | 1005.4 |
| 20260902141007 | 66 | 217 | 1.7 | 2.6 | 0.00 | 0.00 | 0.00 | 53 | 1020.4 |
| 20260902140504 | 66 | 217 | 0.9 | 1.7 | 0.00 | 0.00 | 0.00 | 54 | 1020.4 |
| 20260902140007 | 65 | 217 | 1.7 | 2.6 | 0.00 | 0.00 | 0.00 | 57 | 1020.3 |
| 20260902140003 | 65 | 217 | 0.9 | 2.6 | 0.00 | 0.00 | 0.00 | 57 | 1005.4 |
| 20260902135505 | 64 | 217 | 1.7 | 2.6 | 0.00 | 0.00 | 0.00 | 61 | 1020.4 |
| 20260902135005 | 63 | 217 | 0.0 | 0.0 | 0.00 | 0.00 | 0.00 | 61 | 1020.3 |
| 20260902134504 | 61 | 217 | 0.0 | 1.7 | 0.00 | 0.00 | 0.00 | 64 | 1005.4 |
| 20260902134005 | 60 | 217 | 0.9 | 1.7 | 0.00 | 0.00 | 0.00 | 65 | 1020.2 |
| 20260902133003 | 57 | 217 | 0.0 | 0.9 | 0.00 | 0.00 | 0.00 | 69 | 1005.3 |
| 20260902132504 | 57 | 217 | 0.0 | 2.6 | 0.00 | 0.00 | 0.00 | 70 | 1020.1 |
| 20260902132006 | 56 | 217 | 1.7 | 2.6 | 0.00 | 0.00 | 0.00 | 71 | 1020.0 |
| 20260902131503 | 55 | 202 | 1.7 | 2.6 | 0.00 | 0.00 | 0.00 | 73 | 1020.0 |
| 20260902131006 | 54 | 202 | 0.0 | 1.7 | 0.00 | 0.00 | 0.00 | 75 | 1019.9 |
| 20260902130505 | 53 | 202 | 0.9 | 1.7 | 0.00 | 0.00 | 0.00 | 75 | 1019.9 |
| 20260902130008 | 53 | 202 | 0.0 | 0.9 | 0.00 | 0.00 | 0.00 | 75 | 1019.8 |
| 20260902130002 | 53 | 202 | 0.0 | 0.9 | 0.00 | 0.00 | 0.00 | 75 | 1004.8 |
| 20260902125504 | 53 | 165 | 0.0 | 0.9 | 0.00 | 0.00 | 0.00 | 75 | 1019.8 |
| 20260902125005 | 53 | 161 | 0.0 | 1.7 | 0.00 | 0.00 | 0.00 | 74 | 1019.8 |
| 20260902124504 | 53 | 161 | 0.9 | 4.3 | 0.00 | 0.00 | 0.00 | 74 | 1019.7 |
| 20260902124502 | 53 | 161 | 0.0 | 4.3 | 0.00 | 0.00 | 0.00 | 74 | 1004.8 |
| 20260902124004 | 53 | 161 | 2.6 | 4.3 | 0.00 | 0.00 | 0.00 | 75 | 1019.6 |
| 20260902123505 | 53 | 161 | 1.7 | 1.7 | 0.00 | 0.00 | 0.00 | 75 | 1019.6 |
| 20260902123006 | 54 | 161 | 0.9 | 1.7 | 0.00 | 0.00 | 0.00 | 72 | 1019.5 |
| 20260902123002 | 54 | 161 | 0.9 | 1.7 | 0.00 | 0.00 | 0.00 | 72 | 1004.5 |
| 20260902122505 | 54 | 161 | 0.0 | 2.6 | 0.00 | 0.00 | 0.00 | 71 | 1019.4 |
| 20260902122004 | 55 | 161 | 0.9 | 4.3 | 0.00 | 0.00 | 0.00 | 71 | 1019.4 |
| 20260902121505 | 55 | 161 | 3.5 | 5.2 | 0.00 | 0.00 | 0.00 | 70 | 1019.4 |
| 20260902121502 | 55 | 161 | 3.5 | 5.2 | 0.00 | 0.00 | 0.00 | 70 | 1004.4 |
| 20260902121005 | 56 | 161 | 3.5 | 5.2 | 0.00 | 0.00 | 0.00 | 70 | 1019.2 |
| 20260902120504 | 55 | 161 | 2.6 | 4.3 | 0.00 | 0.00 | 0.00 | 70 | 1019.2 |
| 20260902120006 | 56 | 161 | 2.6 | 2.6 | 0.00 | 0.00 | 0.00 | 71 | 1019.2 |
| 20260902120002 | 56 | 161 | 1.7 | 2.6 | 0.00 | 0.00 | 0.00 | 71 | 1004.3 |
| 20260902115503 | 56 | 161 | 0.9 | 4.3 | 0.00 | 0.00 | 0.00 | 69 | 1019.1 |
| 20260902115005 | 56 | 161 | 0.9 | 4.3 | 0.00 | 0.00 | 0.00 | 69 | 1019.1 |
| 20260902114506 | 56 | 161 | 1.7 | 4.3 | 0.00 | 0.00 | 0.00 | 69 | 1004.1 |
| 20260902114006 | 56 | 161 | 1.7 | 3.5 | 0.00 | 0.00 | 0.00 | 70 | 1019.0 |
| 20260902113504 | 56 | 161 | 1.7 | 3.5 | 0.00 | 0.00 | 0.00 | 70 | 1019.0 |
| 20260902113105 | 56 | 161 | 0.9 | 4.3 | 0.00 | 0.00 | 0.00 | 70 | 1004.0 |
| 20260902113000 | 56 | 161 | 1.7 | 4.3 | 0.00 | 0.00 | 0.00 | 70 | 1018.9 |
| 20260902112505 | 56 | 161 | 2.6 | 4.3 | 0.00 | 0.00 | 0.00 | 70 | 1018.9 |
| 20260902111504 | 57 | 161 | 1.7 | 4.3 | 0.00 | 0.00 | 0.00 | 68 | 1019.0 |
| 20260902111501 | 57 | 161 | 0.9 | 4.3 | 0.00 | 0.00 | 0.00 | 68 | 1004.0 |
| 20260902110959 | 57 | 161 | 2.6 | 4.3 | 0.00 | 0.00 | 0.00 | 69 | 1019.0 |
| 20260902110503 | 57 | 161 | 1.7 | 4.3 | 0.00 | 0.00 | 0.00 | 69 | 1019.0 |
| 20260902110008 | 57 | 161 | 1.7 | 4.3 | 0.00 | 0.00 | 0.00 | 69 | 1018.9 |
| 20260902104504 | 57 | 161 | 0.9 | 3.5 | 0.00 | 0.00 | 0.00 | 70 | 1018.9 |
| 20260902104004 | 57 | 161 | 0.9 | 2.6 | 0.00 | 0.00 | 0.00 | 70 | 1018.9 |
| 20260902103504 | 57 | 161 | 1.7 | 2.6 | 0.00 | 0.00 | 0.00 | 71 | 1018.8 |
| 20260902103005 | 56 | 161 | 0.9 | 4.3 | 0.00 | 0.00 | 0.00 | 71 | 1018.8 |
| 20260902103002 | 56 | 161 | 0.9 | 4.3 | 0.00 | 0.00 | 0.00 | 71 | 1003.7 |
| 20260902102004 | 56 | 161 | 0.9 | 4.3 | 0.00 | 0.00 | 0.00 | 72 | 1018.8 |
| 20260902101503 | 56 | 161 | 1.7 | 4.3 | 0.00 | 0.00 | 0.00 | 72 | 1018.8 |
| 20260902100504 | 57 | 161 | 0.0 | 1.7 | 0.00 | 0.00 | 0.00 | 72 | 1018.9 |
| 20260902100006 | 57 | 161 | 0.0 | 2.6 | 0.00 | 0.00 | 0.00 | 71 | 1018.9 |
| 20260902100002 | 57 | 161 | 0.0 | 2.6 | 0.00 | 0.00 | 0.00 | 71 | 1003.8 |
| 20260902095504 | 57 | 161 | 0.0 | 2.6 | 0.00 | 0.00 | 0.00 | 72 | 1018.9 |
| 20260902095005 | 57 | 161 | 1.7 | 4.3 | 0.00 | 0.00 | 0.00 | 72 | 1018.8 |
| 20260902094505 | 57 | 161 | 0.9 | 2.6 | 0.00 | 0.00 | 0.00 | 72 | 1018.8 |
| 20260902094503 | 57 | 161 | 0.9 | 2.6 | 0.00 | 0.00 | 0.00 | 72 | 1003.6 |
| 20260902094004 | 58 | 161 | 0.9 | 2.6 | 0.00 | 0.00 | 0.00 | 71 | 1018.8 |
| 20260902093503 | 58 | 161 | 1.7 | 4.3 | 0.00 | 0.00 | 0.00 | 70 | 1018.8 |
| 20260902093006 | 58 | 161 | 2.6 | 4.3 | 0.00 | 0.00 | 0.00 | 70 | 1018.8 |
| 20260902093002 | 58 | 161 | 1.7 | 4.3 | 0.00 | 0.00 | 0.00 | 70 | 1003.6 |
| 20260902092504 | 59 | 161 | 2.6 | 4.3 | 0.00 | 0.00 | 0.00 | 69 | 1018.8 |
| 20260902091503 | 59 | 161 | 2.6 | 4.3 | 0.00 | 0.00 | 0.00 | 69 | 1018.7 |
| 20260902091006 | 58 | 161 | 3.5 | 4.3 | 0.00 | 0.00 | 0.00 | 70 | 1018.7 |
| 20260902090504 | 58 | 161 | 2.6 | 2.6 | 0.00 | 0.00 | 0.00 | 71 | 1018.8 |
| 20260902090006 | 58 | 161 | 1.7 | 3.5 | 0.00 | 0.00 | 0.00 | 71 | 1018.8 |
| 20260902090002 | 58 | 161 | 0.9 | 3.5 | 0.00 | 0.00 | 0.00 | 71 | 1003.7 |
| 20260902085503 | 58 | 161 | 1.7 | 2.6 | 0.00 | 0.00 | 0.00 | 72 | 1018.8 |
| 20260902085005 | 58 | 161 | 0.9 | 2.6 | 0.00 | 0.00 | 0.00 | 73 | 1018.8 |
| 20260902084602 | 59 | 161 | 1.7 | 2.6 | 0.00 | 0.00 | 0.00 | 71 | 1003.7 |
| 20260902084500 | 59 | 161 | 1.7 | 3.5 | 0.00 | 0.00 | 0.00 | 71 | 1018.8 |
| 20260902084005 | 59 | 161 | 0.0 | 5.2 | 0.00 | 0.00 | 0.00 | 72 | 1018.8 |
| 20260902083503 | 59 | 161 | 4.3 | 5.2 | 0.00 | 0.00 | 0.00 | 72 | 1018.8 |
| 20260902083001 | 59 | 161 | 2.6 | 4.3 | 0.00 | 0.00 | 0.00 | 72 | 1003.7 |
| 20260902082503 | 59 | 161 | 1.7 | 4.3 | 0.00 | 0.00 | 0.00 | 71 | 1018.8 |
| 20260902082005 | 59 | 161 | 2.6 | 3.5 | 0.00 | 0.00 | 0.00 | 72 | 1018.8 |
| 20260902081504 | 59 | 161 | 0.9 | 4.3 | 0.00 | 0.00 | 0.00 | 72 | 1018.8 |
| 20260902081005 | 59 | 161 | 1.7 | 4.3 | 0.00 | 0.00 | 0.00 | 72 | 1018.9 |
| 20260902080503 | 59 | 161 | 2.6 | 4.3 | 0.00 | 0.00 | 0.00 | 72 | 1018.9 |
| 20260902080007 | 59 | 161 | 1.7 | 2.6 | 0.00 | 0.00 | 0.00 | 72 | 1019.0 |
| 20260902080002 | 59 | 161 | 0.9 | 2.6 | 0.00 | 0.00 | 0.00 | 72 | 1003.9 |
| 20260902075504 | 59 | 161 | 1.7 | 1.7 | 0.00 | 0.00 | 0.00 | 71 | 1019.0 |
| 20260902075005 | 60 | 161 | 0.9 | 2.6 | 0.00 | 0.00 | 0.00 | 71 | 1019.1 |
| 20260902074503 | 59 | 161 | 1.7 | 2.6 | 0.00 | 0.00 | 0.00 | 72 | 1019.1 |
| 20260902074004 | 59 | 161 | 1.7 | 2.6 | 0.00 | 0.00 | 0.00 | 73 | 1019.2 |
| 20260902073503 | 59 | 161 | 1.7 | 3.5 | 0.00 | 0.00 | 0.00 | 73 | 1019.2 |
| 20260902073005 | 60 | 161 | 1.7 | 4.3 | 0.00 | 0.00 | 0.00 | 72 | 1019.2 |
| 20260902073002 | 60 | 161 | 0.9 | 4.3 | 0.00 | 0.00 | 0.00 | 72 | 1004.0 |
| 20260902072504 | 60 | 161 | 0.9 | 4.3 | 0.00 | 0.00 | 0.00 | 71 | 1019.1 |
| 20260902072005 | 61 | 161 | 0.9 | 5.2 | 0.00 | 0.00 | 0.00 | 71 | 1019.1 |
| 20260902071508 | 60 | 161 | 1.7 | 7.0 | 0.00 | 0.00 | 0.00 | 71 | 1004.0 |
| 20260902071504 | 60 | 161 | 1.7 | 7.0 | 0.00 | 0.00 | 0.00 | 71 | 1019.2 |
| 20260902071004 | 60 | 158 | 5.2 | 7.0 | 0.00 | 0.00 | 0.00 | 71 | 1019.3 |
| 20260902070504 | 61 | 180 | 1.7 | 4.3 | 0.00 | 0.00 | 0.00 | 70 | 1019.2 |
| 20260902070007 | 61 | 180 | 0.9 | 7.8 | 0.00 | 0.00 | 0.00 | 68 | 1019.1 |
| 20260902070003 | 61 | 180 | 0.9 | 7.8 | 0.00 | 0.00 | 0.00 | 68 | 1004.0 |
| 20260902065004 | 62 | 188 | 4.3 | 6.1 | 0.00 | 0.00 | 0.00 | 68 | 1019.3 |
| 20260902064505 | 62 | 175 | 3.5 | 5.2 | 0.00 | 0.00 | 0.00 | 68 | 1019.3 |
| 20260902064503 | 62 | 175 | 2.6 | 5.2 | 0.00 | 0.00 | 0.00 | 68 | 1004.1 |
| 20260902064004 | 62 | 151 | 2.6 | 5.2 | 0.00 | 0.00 | 0.00 | 68 | 1019.1 |
| 20260902063504 | 62 | 209 | 2.6 | 3.5 | 0.00 | 0.00 | 0.00 | 69 | 1019.0 |
| 20260902063005 | 62 | 209 | 1.7 | 2.6 | 0.00 | 0.00 | 0.00 | 68 | 1018.9 |
| 20260902063002 | 62 | 209 | 0.9 | 2.6 | 0.00 | 0.00 | 0.00 | 68 | 1003.8 |
| 20260902062504 | 62 | 209 | 0.9 | 3.5 | 0.00 | 0.00 | 0.00 | 67 | 1019.0 |
| 20260902062005 | 62 | 209 | 1.7 | 4.3 | 0.00 | 0.00 | 0.00 | 67 | 1018.9 |
| 20260902061503 | 63 | 198 | 1.7 | 6.1 | 0.00 | 0.00 | 0.00 | 67 | 1019.0 |
| 20260902060504 | 63 | 215 | 3.5 | 7.0 | 0.00 | 0.00 | 0.00 | 67 | 1018.8 |
| 20260902060003 | 63 | 239 | 1.7 | 7.0 | 0.00 | 0.00 | 0.00 | 67 | 1003.8 |
| 20260902055504 | 63 | 245 | 1.7 | 6.1 | 0.00 | 0.00 | 0.00 | 66 | 1019.0 |
| 20260902055006 | 64 | 244 | 1.7 | 3.5 | 0.00 | 0.00 | 0.00 | 64 | 1019.1 |
| 20260902054505 | 64 | 244 | 1.7 | 6.1 | 0.00 | 0.00 | 0.00 | 63 | 1019.0 |
| 20260902054502 | 64 | 244 | 1.7 | 6.1 | 0.00 | 0.00 | 0.00 | 63 | 1003.8 |
| 20260902054004 | 64 | 189 | 2.6 | 6.1 | 0.00 | 0.00 | 0.00 | 63 | 1019.0 |
| 20260902053504 | 64 | 211 | 3.5 | 6.1 | 0.00 | 0.00 | 0.00 | 63 | 1019.1 |
| 20260902053005 | 65 | 180 | 2.6 | 7.8 | 0.00 | 0.00 | 0.00 | 62 | 1019.0 |
| 20260902053003 | 65 | 180 | 2.6 | 7.8 | 0.00 | 0.00 | 0.00 | 62 | 1003.9 |
| 20260902052006 | 66 | 181 | 3.5 | 8.7 | 0.00 | 0.00 | 0.00 | 61 | 1018.8 |
| 20260902051505 | 66 | 209 | 4.3 | 8.7 | 0.00 | 0.00 | 0.00 | 61 | 1018.8 |
| 20260902051502 | 66 | 209 | 3.5 | 8.7 | 0.00 | 0.00 | 0.00 | 61 | 1003.7 |
| 20260902051007 | 66 | 193 | 4.3 | 8.7 | 0.00 | 0.00 | 0.00 | 61 | 1018.8 |
| 20260902050505 | 66 | 180 | 5.2 | 10.4 | 0.00 | 0.00 | 0.00 | 60 | 1018.8 |
| 20260902050009 | 66 | 199 | 4.3 | 10.4 | 0.00 | 0.00 | 0.00 | 60 | 1003.8 |
| 20260902044504 | 67 | 183 | 7.0 | 12.2 | 0.00 | 0.00 | 0.00 | 59 | 1019.0 |
| 20260902044502 | 67 | 183 | 7.0 | 12.2 | 0.00 | 0.00 | 0.00 | 59 | 1004.0 |
| 20260902044006 | 67 | 171 | 7.0 | 12.2 | 0.00 | 0.00 | 0.00 | 59 | 1019.1 |
| 20260902043007 | 67 | 171 | 7.0 | 12.2 | 0.00 | 0.00 | 0.00 | 59 | 1004.4 |
| 20260902042506 | 67 | 183 | 7.8 | 10.4 | 0.00 | 0.00 | 0.00 | 59 | 1019.3 |
| 20260902042006 | 66 | 157 | 6.1 | 7.8 | 0.00 | 0.00 | 0.00 | 58 | 1019.4 |
| 20260902041505 | 66 | 158 | 5.2 | 8.7 | 0.00 | 0.00 | 0.00 | 58 | 1019.4 |
| 20260902041502 | 66 | 158 | 5.2 | 8.7 | 0.00 | 0.00 | 0.00 | 58 | 1004.6 |
| 20260902041006 | 66 | 178 | 5.2 | 7.8 | 0.00 | 0.00 | 0.00 | 57 | 1019.4 |
| 20260902040006 | 66 | 146 | 5.2 | 7.8 | 0.00 | 0.00 | 0.00 | 57 | 1019.5 |
| 20260902040003 | 66 | 146 | 4.3 | 7.8 | 0.00 | 0.00 | 0.00 | 57 | 1004.8 |
| 20260902035504 | 66 | 157 | 6.1 | 7.8 | 0.00 | 0.00 | 0.00 | 57 | 1019.4 |
| 20260902035005 | 67 | 179 | 5.2 | 7.0 | 0.00 | 0.00 | 0.00 | 57 | 1019.5 |
| 20260902034603 | 67 | 183 | 4.3 | 7.8 | 0.00 | 0.00 | 0.00 | 57 | 1004.7 |
| 20260902034501 | 67 | 161 | 4.3 | 7.8 | 0.00 | 0.00 | 0.00 | 57 | 1019.4 |
| 20260902033505 | 67 | 188 | 5.2 | 7.0 | 0.00 | 0.00 | 0.00 | 56 | 1019.4 |
| 20260902033004 | 67 | 144 | 3.5 | 7.8 | 0.00 | 0.00 | 0.00 | 56 | 1004.6 |
| 20260902032505 | 67 | 177 | 5.2 | 8.7 | 0.00 | 0.00 | 0.00 | 56 | 1019.3 |
| 20260902032006 | 68 | 185 | 6.1 | 8.7 | 0.00 | 0.00 | 0.00 | 55 | 1019.4 |
| 20260902031505 | 67 | 180 | 6.1 | 8.7 | 0.00 | 0.00 | 0.00 | 56 | 1019.4 |
| 20260902031503 | 67 | 180 | 6.1 | 8.7 | 0.00 | 0.00 | 0.00 | 56 | 1004.7 |
| 20260902031007 | 67 | 155 | 5.2 | 8.7 | 0.00 | 0.00 | 0.00 | 56 | 1019.3 |
| 20260902030003 | 67 | 169 | 4.3 | 7.0 | 0.00 | 0.00 | 0.00 | 55 | 1004.6 |
| 20260902025504 | 67 | 172 | 4.3 | 7.0 | 0.00 | 0.00 | 0.00 | 55 | 1019.2 |
| 20260902025006 | 67 | 153 | 5.2 | 6.1 | 0.00 | 0.00 | 0.00 | 55 | 1019.1 |
| 20260902024505 | 67 | 177 | 4.3 | 7.0 | 0.00 | 0.00 | 0.00 | 55 | 1019.0 |
| 20260902024502 | 67 | 177 | 4.3 | 7.0 | 0.00 | 0.00 | 0.00 | 55 | 1004.3 |
| 20260902023504 | 67 | 154 | 4.3 | 7.8 | 0.00 | 0.00 | 0.00 | 52 | 1018.7 |
| 20260902023005 | 68 | 146 | 4.3 | 7.8 | 0.00 | 0.00 | 0.00 | 51 | 1018.6 |
| 20260902023003 | 68 | 146 | 4.3 | 7.8 | 0.00 | 0.00 | 0.00 | 51 | 1003.9 |
| 20260902022504 | 70 | 136 | 4.3 | 7.8 | 0.00 | 0.00 | 0.00 | 49 | 1018.6 |
| 20260902021504 | 71 | 174 | 5.2 | 10.4 | 0.00 | 0.00 | 0.00 | 45 | 1018.4 |
| 20260902021502 | 71 | 173 | 4.3 | 10.4 | 0.00 | 0.00 | 0.00 | 45 | 1003.7 |
| 20260902021005 | 71 | 173 | 7.0 | 10.4 | 0.00 | 0.00 | 0.00 | 44 | 1018.4 |
| 20260902020504 | 71 | 150 | 5.2 | 7.0 | 0.00 | 0.00 | 0.00 | 44 | 1018.2 |
| 20260902020006 | 71 | 157 | 4.3 | 6.1 | 0.00 | 0.00 | 0.00 | 44 | 1018.1 |
| 20260902015505 | 71 | 147 | 3.5 | 6.1 | 0.00 | 0.00 | 0.00 | 44 | 1018.1 |
| 20260902015005 | 71 | 148 | 3.5 | 4.3 | 0.00 | 0.00 | 0.00 | 43 | 1018.1 |
| 20260902014504 | 71 | 147 | 3.5 | 6.1 | 0.00 | 0.00 | 0.00 | 43 | 1018.0 |
| 20260902014502 | 71 | 147 | 2.6 | 6.1 | 0.00 | 0.00 | 0.00 | 43 | 1003.3 |
| 20260902014007 | 72 | 147 | 3.5 | 6.1 | 0.00 | 0.00 | 0.00 | 43 | 1018.0 |
| 20260902013504 | 72 | 162 | 3.5 | 5.2 | 0.00 | 0.00 | 0.00 | 42 | 1017.9 |
| 20260902013006 | 72 | 174 | 3.5 | 5.2 | 0.00 | 0.00 | 0.00 | 42 | 1018.0 |
| 20260902013003 | 72 | 174 | 3.5 | 5.2 | 0.00 | 0.00 | 0.00 | 42 | 1003.2 |
| 20260902012505 | 72 | 147 | 3.5 | 6.1 | 0.00 | 0.00 | 0.00 | 43 | 1018.0 |
| 20260902012006 | 73 | 147 | 4.3 | 6.1 | 0.00 | 0.00 | 0.00 | 42 | 1018.0 |
| 20260902011505 | 73 | 128 | 3.5 | 6.1 | 0.00 | 0.00 | 0.00 | 43 | 1018.0 |
| 20260902011503 | 73 | 128 | 3.5 | 6.1 | 0.00 | 0.00 | 0.00 | 43 | 1003.2 |
| 20260902011005 | 74 | 128 | 4.3 | 7.8 | 0.00 | 0.00 | 0.00 | 42 | 1018.0 |
| 20260902010505 | 75 | 110 | 5.2 | 7.8 | 0.00 | 0.00 | 0.00 | 40 | 1017.9 |
| 20260902010006 | 76 | 101 | 3.5 | 6.1 | 0.00 | 0.00 | 0.00 | 39 | 1017.8 |
| 20260902005505 | 76 | 109 | 4.3 | 7.0 | 0.00 | 0.00 | 0.00 | 38 | 1017.8 |
| 20260902005005 | 76 | 111 | 4.3 | 7.0 | 0.00 | 0.00 | 0.00 | 38 | 1017.9 |
| 20260902004505 | 76 | 69 | 2.6 | 7.8 | 0.00 | 0.00 | 0.00 | 40 | 1017.9 |
| 20260902004503 | 76 | 69 | 1.7 | 7.8 | 0.00 | 0.00 | 0.00 | 40 | 1003.2 |
| 20260902004007 | 76 | 59 | 4.3 | 8.7 | 0.00 | 0.00 | 0.00 | 40 | 1017.8 |
| 20260902003505 | 76 | 64 | 5.2 | 8.7 | 0.00 | 0.00 | 0.00 | 40 | 1017.7 |
| 20260902003007 | 76 | 61 | 4.3 | 9.6 | 0.00 | 0.00 | 0.00 | 41 | 1017.8 |
| 20260902003004 | 76 | 61 | 3.5 | 9.6 | 0.00 | 0.00 | 0.00 | 41 | 1003.2 |
| 20260902002505 | 76 | 75 | 6.1 | 9.6 | 0.00 | 0.00 | 0.00 | 40 | 1017.8 |
| 20260902001506 | 76 | 50 | 4.3 | 10.4 | 0.00 | 0.00 | 0.00 | 39 | 1003.2 |
| 20260902001005 | 77 | 49 | 7.8 | 11.3 | 0.00 | 0.00 | 0.00 | 37 | 1017.9 |
| 20260902000504 | 77 | 65 | 8.7 | 11.3 | 0.00 | 0.00 | 0.00 | 36 | 1017.8 |
| 20260902000006 | 76 | 46 | 5.2 | 8.7 | 0.00 | 0.00 | 0.00 | 36 | 1017.9 |
| 20260902000004 | 76 | 46 | 4.3 | 8.7 | 0.00 | 0.00 | 0.00 | 36 | 1003.3 |
| 20260901235506 | 77 | 56 | 4.3 | 9.6 | 0.00 | 0.00 | 0.00 | 37 | 1017.8 |
| 20260901235006 | 77 | 27 | 3.5 | 8.7 | 0.00 | 0.00 | 0.00 | 35 | 1017.8 |
| 20260901234507 | 77 | 38 | 3.5 | 6.1 | 0.00 | 0.00 | 0.00 | 35 | 1017.9 |
| 20260901234503 | 77 | 38 | 3.5 | 6.1 | 0.00 | 0.00 | 0.00 | 35 | 1003.3 |
| 20260901233504 | 78 | 37 | 2.6 | 4.3 | 0.00 | 0.00 | 0.00 | 33 | 1017.8 |
| 20260901233005 | 78 | 79 | 2.6 | 6.1 | 0.00 | 0.00 | 0.00 | 33 | 1017.8 |
| 20260901233002 | 78 | 79 | 1.7 | 6.1 | 0.00 | 0.00 | 0.00 | 33 | 1003.2 |
| 20260901232002 | 78 | 122 | 5.2 | 9.6 | 0.00 | 0.00 | 0.00 | 30 | 1017.8 |
| 20260901231558 | 78 | 123 | 3.5 | 8.7 | 0.00 | 0.00 | 0.00 | 32 | 1003.3 |
| 20260901231005 | 78 | 119 | 6.1 | 9.6 | 0.00 | 0.00 | 0.00 | 31 | 1017.9 |
| 20260901230006 | 79 | 134 | 7.0 | 10.4 | 0.00 | 0.00 | 0.00 | 30 | 1017.9 |
| 20260901230003 | 79 | 134 | 7.0 | 10.4 | 0.00 | 0.00 | 0.00 | 30 | 1003.4 |
| 20260901225004 | 79 | 120 | 7.0 | 12.2 | 0.00 | 0.00 | 0.00 | 30 | 1017.9 |
| 20260901224506 | 79 | 142 | 8.7 | 11.3 | 0.00 | 0.00 | 0.00 | 30 | 1017.9 |
| 20260901224503 | 79 | 142 | 7.8 | 11.3 | 0.00 | 0.00 | 0.00 | 30 | 1003.4 |
| 20260901224006 | 80 | 133 | 7.8 | 12.2 | 0.00 | 0.00 | 0.00 | 30 | 1017.9 |
| 20260901223505 | 81 | 133 | 6.1 | 12.2 | 0.00 | 0.00 | 0.00 | 29 | 1018.0 |
| 20260901223004 | 81 | 44 | 2.6 | 7.8 | 0.00 | 0.00 | 0.00 | 26 | 1003.5 |
| 20260901222006 | 81 | 171 | 5.2 | 7.8 | 0.00 | 0.00 | 0.00 | 26 | 1018.1 |
| 20260901221503 | 81 | 175 | 4.3 | 7.8 | 0.00 | 0.00 | 0.00 | 26 | 1003.6 |
| 20260901221005 | 81 | 304 | 3.5 | 5.2 | 0.00 | 0.00 | 0.00 | 26 | 1018.2 |
| 20260901220009 | 80 | 224 | 0.9 | 7.8 | 0.00 | 0.00 | 0.00 | 27 | 1018.2 |
| 20260901220003 | 80 | 224 | 0.0 | 7.8 | 0.00 | 0.00 | 0.00 | 27 | 1003.7 |
| 20260901215506 | 80 | 224 | 0.9 | 13.9 | 0.00 | 0.00 | 0.00 | 27 | 1018.3 |
| 20260901215005 | 80 | 150 | 5.2 | 13.9 | 0.00 | 0.00 | 0.00 | 27 | 1018.4 |
| 20260901214505 | 81 | 190 | 5.2 | 9.6 | 0.00 | 0.00 | 0.00 | 26 | 1018.4 |
| 20260901214503 | 81 | 190 | 4.3 | 9.6 | 0.00 | 0.00 | 0.00 | 26 | 1004.0 |
| 20260901213504 | 81 | 182 | 7.8 | 14.8 | 0.00 | 0.00 | 0.00 | 27 | 1018.5 |
| 20260901213006 | 82 | 132 | 7.0 | 14.8 | 0.00 | 0.00 | 0.00 | 25 | 1018.5 |
| 20260901213004 | 82 | 132 | 7.0 | 14.8 | 0.00 | 0.00 | 0.00 | 25 | 1004.1 |
| 20260901212506 | 82 | 305 | 3.5 | 8.7 | 0.00 | 0.00 | 0.00 | 25 | 1018.5 |
| 20260901211505 | 81 | 201 | 4.3 | 8.7 | 0.00 | 0.00 | 0.00 | 28 | 1018.6 |
| 20260901211503 | 81 | 201 | 3.5 | 8.7 | 0.00 | 0.00 | 0.00 | 28 | 1004.2 |
| 20260901211006 | 81 | 254 | 2.6 | 7.0 | 0.00 | 0.00 | 0.00 | 26 | 1018.8 |
| 20260901210007 | 81 | 118 | 5.2 | 8.7 | 0.00 | 0.00 | 0.00 | 27 | 1019.0 |
| 20260901210003 | 81 | 118 | 4.3 | 8.7 | 0.00 | 0.00 | 0.00 | 27 | 1004.5 |
| 20260901205505 | 81 | 164 | 4.3 | 8.7 | 0.00 | 0.00 | 0.00 | 26 | 1019.0 |
| 20260901204504 | 81 | 238 | 4.3 | 8.7 | 0.00 | 0.00 | 0.00 | 27 | 1019.1 |
| 20260901204502 | 81 | 238 | 3.5 | 8.7 | 0.00 | 0.00 | 0.00 | 27 | 1004.7 |
| 20260901204006 | 80 | 257 | 4.3 | 9.6 | 0.00 | 0.00 | 0.00 | 25 | 1019.1 |
| 20260901203510 | 80 | 152 | 7.0 | 9.6 | 0.00 | 0.00 | 0.00 | 27 | 1019.2 |
| 20260901203009 | 80 | 203 | 4.3 | 8.7 | 0.00 | 0.00 | 0.00 | 27 | 1019.4 |
| 20260901203004 | 80 | 203 | 4.3 | 8.7 | 0.00 | 0.00 | 0.00 | 27 | 1004.9 |
| 20260901202505 | 79 | 306 | 1.7 | 7.0 | 0.00 | 0.00 | 0.00 | 28 | 1019.4 |
| 20260901202006 | 79 | 314 | 3.5 | 8.7 | 0.00 | 0.00 | 0.00 | 28 | 1019.4 |
| 20260901201508 | 79 | 201 | 5.2 | 8.7 | 0.00 | 0.00 | 0.00 | 27 | 1005.0 |
| 20260901201005 | 79 | 227 | 3.5 | 8.7 | 0.00 | 0.00 | 0.00 | 28 | 1019.5 |
| 20260901200504 | 78 | 149 | 3.5 | 8.7 | 0.00 | 0.00 | 0.00 | 31 | 1019.5 |
| 20260901200009 | 77 | 163 | 1.7 | 5.2 | 0.00 | 0.00 | 0.00 | 30 | 1005.2 |
| 20260901195505 | 77 | 187 | 1.7 | 6.1 | 0.00 | 0.00 | 0.00 | 28 | 1019.7 |
| 20260901195005 | 77 | 9 | 1.7 | 9.6 | 0.00 | 0.00 | 0.00 | 27 | 1019.7 |
| 20260901194505 | 78 | 10 | 5.2 | 12.2 | 0.00 | 0.00 | 0.00 | 27 | 1019.8 |
| 20260901194006 | 79 | 298 | 6.1 | 12.2 | 0.00 | 0.00 | 0.00 | 28 | 1019.6 |
| 20260901193504 | 79 | 248 | 4.3 | 7.8 | 0.00 | 0.00 | 0.00 | 28 | 1019.9 |
| 20260901193006 | 78 | 307 | 4.3 | 7.8 | 0.00 | 0.00 | 0.00 | 28 | 1019.9 |
| 20260901193004 | 78 | 307 | 3.5 | 7.8 | 0.00 | 0.00 | 0.00 | 28 | 1005.4 |
| 20260901192504 | 78 | 295 | 4.3 | 10.4 | 0.00 | 0.00 | 0.00 | 32 | 1019.9 |
| 20260901192006 | 77 | 281 | 5.2 | 11.3 | 0.00 | 0.00 | 0.00 | 30 | 1019.9 |
| 20260901191504 | 78 | 225 | 5.2 | 20.9 | 0.00 | 0.00 | 0.00 | 30 | 1020.0 |
| 20260901191502 | 78 | 225 | 5.2 | 20.9 | 0.00 | 0.00 | 0.00 | 30 | 1005.5 |
| 20260901191006 | 78 | 269 | 8.7 | 20.9 | 0.00 | 0.00 | 0.00 | 32 | 1019.9 |
| 20260901190004 | 77 | 173 | 3.5 | 9.6 | 0.00 | 0.00 | 0.00 | 31 | 1005.4 |
| 20260901185005 | 77 | 290 | 3.5 | 10.4 | 0.00 | 0.00 | 0.00 | 32 | 1020.2 |
| 20260901184505 | 76 | 261 | 3.5 | 10.4 | 0.00 | 0.00 | 0.00 | 32 | 1020.4 |
| 20260901184503 | 76 | 261 | 2.6 | 10.4 | 0.00 | 0.00 | 0.00 | 32 | 1005.9 |
| 20260901184006 | 77 | 291 | 4.3 | 10.4 | 0.00 | 0.00 | 0.00 | 31 | 1020.5 |
| 20260901183504 | 77 | 264 | 6.1 | 12.2 | 0.00 | 0.00 | 0.00 | 32 | 1020.5 |
| 20260901183006 | 77 | 284 | 7.0 | 12.2 | 0.00 | 0.00 | 0.00 | 32 | 1020.5 |
| 20260901183002 | 77 | 284 | 7.0 | 12.2 | 0.00 | 0.00 | 0.00 | 32 | 1005.9 |
| 20260901182506 | 77 | 198 | 1.7 | 5.2 | 0.00 | 0.00 | 0.00 | 35 | 1020.5 |
| 20260901182006 | 76 | 304 | 0.9 | 5.2 | 0.00 | 0.00 | 0.00 | 33 | 1020.6 |
| 20260901181505 | 76 | 55 | 0.9 | 4.3 | 0.00 | 0.00 | 0.00 | 32 | 1020.7 |
| 20260901181007 | 76 | 300 | 2.6 | 7.0 | 0.00 | 0.00 | 0.00 | 32 | 1020.7 |
| 20260901180505 | 75 | 5 | 3.5 | 7.8 | 0.00 | 0.00 | 0.00 | 35 | 1020.8 |
| 20260901180007 | 75 | 319 | 4.3 | 8.7 | 0.00 | 0.00 | 0.00 | 35 | 1021.0 |
| 20260901180003 | 75 | 319 | 3.5 | 8.7 | 0.00 | 0.00 | 0.00 | 35 | 1006.3 |
| 20260901175504 | 75 | 303 | 3.5 | 9.6 | 0.00 | 0.00 | 0.00 | 34 | 1021.0 |
| 20260901175007 | 75 | 248 | 4.3 | 7.8 | 0.00 | 0.00 | 0.00 | 37 | 1021.0 |
| 20260901174513 | 74 | 333 | 2.6 | 7.8 | 0.00 | 0.00 | 0.00 | 40 | 1006.4 |
| 20260901174506 | 74 | 333 | 3.5 | 7.8 | 0.00 | 0.00 | 0.00 | 40 | 1021.0 |
| 20260901174008 | 73 | 244 | 2.6 | 7.8 | 0.00 | 0.00 | 0.00 | 45 | 1021.1 |
| 20260901173005 | 72 | 265 | 4.3 | 8.7 | 0.00 | 0.00 | 0.00 | 45 | 1021.2 |
| 20260901173003 | 72 | 265 | 4.3 | 8.7 | 0.00 | 0.00 | 0.00 | 45 | 1006.6 |
| 20260901172504 | 72 | 275 | 2.6 | 8.7 | 0.00 | 0.00 | 0.00 | 45 | 1021.3 |
| 20260901172006 | 71 | 246 | 3.5 | 8.7 | 0.00 | 0.00 | 0.00 | 49 | 1021.4 |
| 20260901171502 | 71 | 222 | 2.6 | 7.0 | 0.00 | 0.00 | 0.00 | 48 | 1006.9 |
| 20260901171005 | 71 | 284 | 3.5 | 7.0 | 0.00 | 0.00 | 0.00 | 47 | 1021.6 |
| 20260901170505 | 71 | 244 | 3.5 | 7.0 | 0.00 | 0.00 | 0.00 | 47 | 1021.6 |
| 20260901170007 | 71 | 250 | 2.6 | 7.8 | 0.00 | 0.00 | 0.00 | 48 | 1021.6 |
| 20260901170003 | 71 | 250 | 2.6 | 7.8 | 0.00 | 0.00 | 0.00 | 48 | 1006.9 |
| 20260901165505 | 70 | 284 | 2.6 | 11.3 | 0.00 | 0.00 | 0.00 | 51 | 1021.7 |
| 20260901165005 | 70 | 282 | 4.3 | 11.3 | 0.00 | 0.00 | 0.00 | 51 | 1021.7 |
| 20260901164504 | 69 | 281 | 3.5 | 9.6 | 0.00 | 0.00 | 0.00 | 51 | 1021.8 |
| 20260901164502 | 69 | 281 | 3.5 | 9.6 | 0.00 | 0.00 | 0.00 | 51 | 1007.1 |
| 20260901164010 | 69 | 306 | 4.3 | 7.8 | 0.00 | 0.00 | 0.00 | 52 | 1021.8 |
| 20260901163505 | 68 | 255 | 2.6 | 7.0 | 0.00 | 0.00 | 0.00 | 54 | 1021.7 |
| 20260901163007 | 68 | 260 | 2.6 | 4.3 | 0.00 | 0.00 | 0.00 | 54 | 1021.7 |
| 20260901163004 | 68 | 260 | 1.7 | 4.3 | 0.00 | 0.00 | 0.00 | 54 | 1007.0 |
| 20260901162505 | 68 | 270 | 1.7 | 7.0 | 0.00 | 0.00 | 0.00 | 54 | 1021.6 |